Home   Weather   Holguín   Past weeks

Flag for Cuba Past Weather in Holguín, Cuba — Yesterday and Last 2 Weeks

Now
68 °F

Passing clouds.


Feels Like: 68 °F
Forecast: 70 / 88 °F
Wind: 5 mph from Southeast

Location: Holguin Civ / Mil

Current Time: Dec 6, 2016 at 5:28:50 am

Latest Report: Dec 6, 2016 at 4:50 am


Visibility: N/A

Pressure: 30.01 "Hg

Humidity: 88%

Dew Point: 64 °F

Location of HolguínLocation

Past Weather in Holguín — Graph

°F

Holguín Temperature Yesterday

Maximum temperature yesterday: 86 °F (at 12:51 pm)
Minimum temperature yesterday: 70 °F (at 4:50 am)
Average temperature yesterday: 78 °F

High & Low Weather Summary for the Past Weeks

 TemperatureHumidityPressure
High90 °F (Dec 3, 12:50 pm)94% (Nov 21, 6:50 am)30.07 "Hg (Nov 21, 6:50 am)
Low61 °F (Nov 21, 5:50 am)33% (Dec 4, 2:50 pm)29.86 "Hg (Nov 28, 12:51 pm)
Average76 °F73%29.96 "Hg
* Reported Nov 21 3:50 am — Dec 6 3:50 am, Holguín, Weather by CustomWeather, © 2016

Note: Actual official high and low records may vary slightly from our data, if they occured in-between our weather recording intervals... More about our weather records

Advertising

Holguín Weather History for the Previous 24 Hours

Scroll right to see more
 ConditionsComfort  
Time TempWeatherWind HumidityBarometerVisibility
3:50 am
Tue, Dec 6
68 °FPassing clouds.3 mph88%29.98 "HgN/A
2:50 am70 °FPassing clouds.5 mph88%29.98 "Hg6 mi
12:50 am73 °FPassing clouds.6 mph83%29.98 "HgN/A
11:50 pm
Mon, Dec 5
75 °FPassing clouds.8 mph78%29.98 "HgN/A
10:50 pm77 °FPassing clouds.12 mph69%29.98 "HgN/A
9:50 pm77 °FPassing clouds.12 mph69%29.98 "HgN/A
8:50 pm77 °FPassing clouds.14 mph69%29.98 "HgN/A
7:51 pm77 °FPassing clouds.10 mph74%29.98 "HgN/A
6:53 pm77 °FPassing clouds.10 mph74%29.95 "HgN/A
5:50 pm79 °FPassing clouds.10 mph65%29.95 "HgN/A
4:50 pm82 °FPassing clouds.10 mph62%29.95 "HgN/A
4:03 pm86 °FPassing clouds.8 mph52%29.92 "HgN/A
2:51 pm86 °FScattered clouds.9 mph52%29.92 "HgN/A
1:50 pm86 °FScattered clouds.8 mph52%29.92 "HgN/A
12:51 pm86 °FScattered clouds.12 mph52%29.95 "Hg6 mi
11:51 am84 °FScattered clouds.15 mph55%29.98 "HgN/A
10:50 am82 °FScattered clouds.15 mph58%30.01 "HgN/A
9:51 am82 °FScattered clouds.14 mph58%30.01 "HgN/A
8:52 am79 °FScattered clouds.14 mph70%30.04 "Hg6 mi
7:50 am75 °FPassing clouds.7 mph78%30.01 "Hg6 mi
6:50 am70 °FPassing clouds.8 mph88%30.01 "Hg5 mi
5:50 am70 °FFog.6 mph88%30.01 "Hg4 mi
Weather by CustomWeather, © 2016

See weather overviewHow to use our weather pages